Weather in Konoplyanoe

Ukraine / Odesa District     47°03′02″N   30°28′41″E
temp.,
°C
wind,
m/s
gust,
m/s
humid.,
%
clouds,
%
prec.,
mm/h
press.,
hPa
HPBL,
m
22 april, thu
thu2200:00+11ssw3569100 0.0 1018135
03:00+10ssw3677100 0.0 1018173
06:00+10s247696 0.0 101991
09:00+13s46634 0.0 1020457
12:00+17s564779 0.4 10191760
15:00+18sse564597 1.6 10182184
18:00+14se476365 2.1 1018211
21:00+12s61273100 2.1 1018348
23 april, fri
fri2300:00+10s51375100 0.0 1018309
03:00+9s51183100 0.0 1017254
06:00+8s4993100 0.3 1017213
09:00+12sw5677100 0.9 1017509
12:00+16w3459100 0.1 10161099
15:00+13sw4473100 2.1 1016547
18:00+8nnw81187100 5.1 1018704
21:00+7n478693 5.4 1019453
24 april, sat
sat2400:00+5nw35925 0.0 1020125
03:00+4w39900 0.0 1020202
06:00+4wnw35830 0.0 102095
09:00+9wnw69615 0.0 1021868
12:00+8nw8106278 0.0 10231306
15:00+11nw8113443 0.0 10222300
18:00+11nw79375 0.0 10222277
21:00+6nnw33510 0.0 102424
25 april, sun
sun2500:00+5w11535 0.0 102410
03:00+4wsw11545 0.0 102410
06:00+3sw11575 0.0 102310
09:00+10ssw34437 0.0 1022396
12:00+13ssw563764 0.0 10211861
15:00+14sw6746100 0.0 10192102
18:00+10ssw5871100 0.4 1019796
21:00+8ssw61165100 0.6 1020477
26 april, mon
mon2600:00+8wnw3683100 0.6 1020425
03:00+6nnw4884100 1.2 1021683
06:00+3nw48810 0.1 1021191
09:00+7nw56520 0.1 1021842
12:00+11nw56385 0.0 10211900
15:00+13wnw683396 0.0 10192576
18:00+12nw673623 0.0 10192249
21:00+8nnw365196 0.0 102099